Kingsville NAS, TX

8:13 AM CDT on July 29, 2017 (GMT -0500)
Kingsville Naval Air Station

Weather History for KNQI - February, 2013

Change the Weather History Date:

Saturday, February 16, 2013

  Actual Average Record
Temperature  
Mean Temperature 54 °F -  
Max Temperature 66 °F 71 °F 82 °F (2014)
Min Temperature 42 °F 51 °F 39 °F (2017)
Degree Days  
Heating Degree Days 11    
Growing Degree Days 4 (Base 50)    
Moisture  
Dew Point 31 °F    
Average Humidity 45    
Maximum Humidity 74    
Minimum Humidity 22    
Precipitation  
Precipitation 0.00 in - - ()
Sea Level Pressure  
Sea Level Pressure 30.37 in    
Wind  
Wind Speed 10 mph (North)    
Max Wind Speed 17 mph    
Max Gust Speed 24 mph    
Visibility 10 miles    
Events      
Averages and records for this station are not official NWS values.
T = Trace of Precipitation, MM = Missing Value Source: NWS Daily Summary

Daily Weather History Graph

Daily Weather History Graph

Search for Another Location

Airport or City:

Trip Planner

Search our weather history database for the weather conditions in past years. The results will help you decide how hot, cold, wet, or windy it might be!

Date:

Astronomy

Feb. 16, 2013 Rise Set
Actual Time 7:07 AM CST 6:23 PM CST
Civil Twilight 6:43 AM CST 6:47 PM CST
Nautical Twilight 6:16 AM CST 7:14 PM CST
Astronomical Twilight 5:48 AM CST 7:42 PM CST
Moon 10:59 AM CST (2/16) No Moon Set
Length of Visible Light 12h 04m
Length of Day
11h 16m
Waxing Crescent, 39% of the Moon is Illuminated
Feb 16
Waxing Crescent
Feb 17
First Quarter
Feb 25
Full
Mar 4
Last Quarter
Mar 11
New

Hourly Weather History & Observations

Time (CST) Temp. Windchill Dew Point Humidity Pressure Visibility Wind Dir Wind Speed Gust Speed Precip Events Conditions
12:56 AM 55.0 °F - 41.0 °F 59% 30.33 in 10.0 mi North 17.3 mph 24.2 mph N/A   Overcast
1:56 AM 54.0 °F - 39.0 °F 57% 30.35 in 10.0 mi North 13.8 mph 24.2 mph N/A   Overcast
2:56 AM 53.1 °F - 37.0 °F 55% 30.36 in 10.0 mi North 13.8 mph 24.2 mph N/A   Overcast
3:56 AM 50.0 °F - 36.0 °F 59% 30.38 in 10.0 mi North 10.4 mph - N/A   Partly Cloudy
4:56 AM 48.9 °F - 28.0 °F 44% 30.40 in 10.0 mi North 11.5 mph - N/A   Partly Cloudy
5:56 AM 45.0 °F 41.8 °F 27.0 °F 49% 30.41 in 10.0 mi North 5.8 mph - N/A   Clear
6:56 AM 42.1 °F 38.4 °F 28.0 °F 58% 30.43 in 10.0 mi NNW 5.8 mph - N/A   Clear
7:56 AM 45.0 °F 41.2 °F 30.0 °F 56% 30.45 in 10.0 mi NNW 6.9 mph - N/A   Clear
8:56 AM 50.0 °F - 27.0 °F 41% 30.48 in 10.0 mi North 10.4 mph - N/A   Clear
9:56 AM 54.0 °F - 26.1 °F 34% 30.49 in 10.0 mi NNE 8.1 mph - N/A   Clear
10:56 AM 57.9 °F - 26.1 °F 30% 30.48 in 10.0 mi North 9.2 mph - N/A   Clear
11:56 AM 61.0 °F - 26.1 °F 26% 30.45 in 10.0 mi Variable 4.6 mph - N/A   Clear
12:56 PM 63.0 °F - 26.1 °F 25% 30.41 in 10.0 mi ENE 4.6 mph - N/A   Clear
1:56 PM 64.0 °F - 27.0 °F 25% 30.37 in 10.0 mi Calm Calm - N/A   Clear
2:56 PM 64.9 °F - 27.0 °F 24% 30.33 in 10.0 mi NW 3.5 mph - N/A   Clear
3:56 PM 64.9 °F - 26.1 °F 23% 30.31 in 10.0 mi Calm Calm - N/A   Clear
4:56 PM 66.0 °F - 26.1 °F 22% 30.29 in 10.0 mi Calm Calm - N/A   Clear
5:56 PM 64.0 °F - 26.1 °F 24% 30.28 in 10.0 mi Calm Calm - N/A   Clear
6:56 PM 55.9 °F - 34.0 °F 44% 30.29 in 10.0 mi SE 9.2 mph - N/A   Clear
7:56 PM 51.1 °F - 36.0 °F 56% 30.30 in 10.0 mi SSE 9.2 mph - N/A   Clear
8:56 PM 50.0 °F - 37.0 °F 61% 30.30 in 10.0 mi SSE 9.2 mph - N/A   Clear
9:56 PM 46.9 °F - 37.0 °F 68% 30.30 in 10.0 mi SSE 6.9 mph - N/A   Clear
10:56 PM 45.0 °F 39.7 °F 37.0 °F 74% 30.30 in 10.0 mi SSW 10.4 mph - N/A   Clear
11:56 PM 42.1 °F 37.7 °F 34.0 °F 73% 30.29 in 10.0 mi South 6.9 mph - N/A   Clear